"TOA5","AWS1","CR1000","7964","CR1000.Std.14","CPU:AWS1_114.CR1","64363","TBL110"
"TIMESTAMP","RECORD","Wind_spd_WVc(1)","Wind_spd_WVc(2)","Air_Temp_Avg","Humidity_Avg","SW_upper_Wm2_Avg","Rain_Tot","Press_Avg","Issui_Tot","Depth_cm","SR50A_Raw","Quality","Ground_Temp_Avg(1)","Ground_Temp_Avg(2)","SW_lower_Wm2_Avg","Albedo_Avg","SWC_per(1)","SWC_per(2)","Period(1)","Period(2)"
"TS","RN","","","","","","","","","","","","","","","","","","",""
"","","WVc","WVc","Avg","Avg","Avg","Tot","Avg","Tot","Smp","Smp","Smp","Avg","Avg","Avg","Avg","Smp","Smp","Smp","Smp"
"2017-11-05 00:00:00",313117,0.594,209.4,0.078,83.1,0,0,869.8665,0,7.424,3.106,308,7.525,8.65,1.532375,0,51.66,58.67,33.7,35.37
"2017-11-05 00:10:00",313118,0.708,200.2,-0.352,86.9,0,0,869.8792,0,4.966,3.132,224,7.519,8.69,1.22901,0,51.66,58.67,33.7,35.37
"2017-11-05 00:20:00",313119,0.605,210.6,-0.289,85,0,0,869.9213,0,4.837,3.134,216,7.514,8.68,1.34285,0,51.66,58.73,33.7,35.39
"2017-11-05 00:30:00",313120,0.886,267.3,-0.014,78.82,0,0,870.071,0,4.44,3.134,194,7.492,8.66,1.52495,0,51.66,58.73,33.7,35.39
"2017-11-05 00:40:00",313121,0.634,233.2,0.059,78.86,0,0,870.1174,0,4.486,3.137,198,7.445,8.65,1.342871,0,51.66,58.73,33.7,35.39
"2017-11-05 00:50:00",313122,0.83,208,-0.269,81.2,0,0,870.1671,0,4.461,3.139,200,7.435,8.65,1.183549,0,51.66,58.67,33.7,35.37
"2017-11-05 01:00:00",313123,0.465,225,-0.343,81.5,0,0,870.3821,0,3.887,3.143,194,7.418,8.65,1.210103,0,51.66,58.73,33.7,35.39
"2017-11-05 01:10:00",313124,0.231,242.7,-0.369,81.7,0,0,870.6309,0,4.86,3.135,216,7.411,8.65,1.312526,0,51.6,58.73,33.69,35.39
"2017-11-05 01:20:00",313125,0.515,188.1,-0.536,84.9,0,0,870.6536,0,10.68,3.077,479,7.435,8.65,1.031812,0,51.66,58.73,33.7,35.39
"2017-11-05 01:30:00",313126,0.639,203.3,-0.209,80.4,0,0,870.6629,0,11.59,3.063,458,7.434,8.65,1.092507,0,51.66,58.73,33.7,35.39
"2017-11-05 01:40:00",313127,0.446,165.3,-0.15,80.8,0,0,870.6569,0,11.63,3.067,389,7.394,8.65,0.8649014,0,51.66,58.73,33.7,35.39
"2017-11-05 01:50:00",313128,0.544,206.6,-0.29,80.3,0,0,870.6769,0,11.29,3.066,402,7.351,8.64,0.933183,0,51.66,58.73,33.7,35.39
"2017-11-05 02:00:00",313129,0.806,213.9,-0.317,82.2,0,0,870.6379,0,12.03,3.062,307,7.367,8.61,0.6448826,0,51.66,58.73,33.7,35.39
"2017-11-05 02:10:00",313130,0.344,218.5,-0.494,82.4,0,0,870.6327,0,11.18,3.071,291,7.391,8.57,0.6979876,0,51.66,58.73,33.7,35.39
"2017-11-05 02:20:00",313131,0.427,226.2,-0.547,83.6,0,0,870.6312,0,11.93,3.063,260,7.401,8.56,0.8838576,0,51.66,58.73,33.7,35.39
"2017-11-05 02:30:00",313132,0.341,90.6,-0.537,82.5,0,0,870.6524,0,11.15,3.073,253,7.413,8.56,0.7131593,0,51.66,58.73,33.7,35.39
"2017-11-05 02:40:00",313133,0.373,268.7,-0.369,80.6,0,0,870.7394,0,10.73,3.075,244,7.345,8.57,0.9521481,0,51.66,58.73,33.7,35.39
"2017-11-05 02:50:00",313134,0.375,239.3,-0.444,81.8,0,0,870.7309,0,10.93,3.073,243,7.286,8.58,0.758685,0,51.6,58.73,33.69,35.39
"2017-11-05 03:00:00",313135,0.222,67.85,-0.684,82.6,0,0,870.7883,0,11.28,3.072,236,7.291,8.58,0.5196965,0,51.66,58.73,33.7,35.39
"2017-11-05 03:10:00",313136,0.349,357.6,-0.538,81.1,0,0,870.9517,0,11.08,3.074,240,7.303,8.57,0.8004034,0,51.6,58.73,33.69,35.39
"2017-11-05 03:20:00",313137,0.299,197,-0.986,84.5,0,0,870.9376,0,11.4,3.07,232,7.286,8.59,0.4741762,0,51.6,58.79,33.69,35.4
"2017-11-05 03:30:00",313138,0.626,217,-0.811,84.2,0,0,870.9688,0,11.48,3.068,224,7.262,8.59,0.7890313,0,51.66,58.73,33.7,35.39
"2017-11-05 03:40:00",313139,0.384,191.4,-0.576,83.1,0,0,871.1611,0,10.78,3.076,229,7.255,8.55,0.811793,0,51.6,58.73,33.69,35.39
"2017-11-05 03:50:00",313140,0.301,3.674,-0.706,83.6,0,0,871.2244,0,10.88,3.076,219,7.195,8.56,0.6372957,0,51.6,58.79,33.69,35.4
"2017-11-05 04:00:00",313141,0.222,167.5,-0.797,85.1,0,0,871.3045,0,10.9,3.076,227,7.192,8.56,0.4817652,0,51.66,58.79,33.7,35.4
"2017-11-05 04:10:00",313142,0.141,73.85,-0.984,85.8,0,0,871.4606,0,10.8,3.077,214,7.202,8.56,0.4134835,0,51.66,58.79,33.7,35.4
"2017-11-05 04:20:00",313143,0.246,49.81,-0.954,86.7,0,0,871.4781,0,11.47,3.072,222,7.152,8.56,0.6676431,0,51.66,58.79,33.7,35.4
"2017-11-05 04:30:00",313144,0.612,308.2,-0.595,84.2,0,0,871.5556,0,10.53,3.078,205,7.17,8.56,1.06216,0,51.66,58.79,33.7,35.4
"2017-11-05 04:40:00",313145,0.172,248,-0.596,85.9,0,0,871.7266,0,10.33,3.08,205,7.177,8.56,0.6828168,0,51.6,58.79,33.69,35.4
"2017-11-05 04:50:00",313146,0.016,43.63,-0.977,88.5,0,0,871.7295,0,10.52,3.081,205,7.165,8.56,0.3148544,0,51.6,58.79,33.69,35.4
"2017-11-05 05:00:00",313147,0.344,209.5,-0.945,88.7,0,0,871.7302,0,10.53,3.079,205,7.102,8.56,0.6410891,0,51.66,58.79,33.7,35.4
"2017-11-05 05:10:00",313148,0.219,123.5,-0.941,90.3,0,0,871.7275,0,10.5,3.08,205,7.101,8.56,0.6600563,0,51.66,58.79,33.7,35.4
"2017-11-05 05:20:00",313149,0.399,287.3,-0.85,91.7,0,0,871.7565,0,10.68,3.078,211,7.107,8.56,0.8079999,0,51.66,58.79,33.7,35.4
"2017-11-05 05:30:00",313150,0.267,168.9,-1.26,92.7,0,0,871.7296,0,10.94,3.079,215,7.071,8.56,0.337615,0,51.6,58.79,33.69,35.4
"2017-11-05 05:40:00",313151,0.47,197.5,-1.337,95,0,0,871.7302,0,10.67,3.081,206,7.089,8.54,0.6372957,0,51.6,58.79,33.69,35.4
"2017-11-05 05:50:00",313152,0.665,205.9,-1.21,94.8,0,0,871.7304,0,10.65,3.08,206,7.086,8.51,0.7245445,0,51.6,58.79,33.69,35.4
"2017-11-05 06:00:00",313153,0.442,203.9,-1.163,93.4,0,0,871.7325,0,10.64,3.081,206,7.017,8.52,0.7738591,0,51.66,58.79,33.7,35.4
"2017-11-05 06:10:00",313154,0.485,306,-1.147,90.7,0,0,871.8885,0,10.82,3.078,215,7.015,8.54,1.005258,0,51.66,58.79,33.7,35.4
"2017-11-05 06:20:00",313155,0.41,232.6,-0.933,86.1,0.01573725,0,872.0403,0,10.78,3.077,205,7.042,8.55,1.464263,0.466,51.66,58.79,33.7,35.4
"2017-11-05 06:30:00",313156,0.245,42.89,-0.991,85.8,1.581594,0,872.2132,0,10.78,3.076,205,7.04,8.53,1.801878,2.249,51.6,58.79,33.69,35.4
"2017-11-05 06:40:00",313157,0.581,251.7,-0.631,81.4,5.028053,0,872.2428,0,10.53,3.078,215,7.011,8.52,2.245709,0.462,51.6,58.79,33.69,35.4
"2017-11-05 06:50:00",313158,0.629,230.8,-0.569,80.2,9.107936,0,872.3545,0,10.53,3.077,210,7.002,8.5,2.442967,0.274,51.66,58.79,33.7,35.4
"2017-11-05 07:00:00",313159,0.275,254,-0.666,81.4,15.24547,0,872.4874,0,10.52,3.08,210,6.993,8.49,2.860244,0.19,51.66,58.79,33.7,35.4
"2017-11-05 07:10:00",313160,0.247,250,-0.714,82.3,24.5029,0,872.616,0,10.35,3.08,205,6.945,8.48,6.058103,0.238,51.66,58.79,33.7,35.4
"2017-11-05 07:20:00",313161,0.348,183.6,-0.336,80.6,32.44628,0,872.734,0,10.21,3.079,210,6.932,8.48,10.55711,0.326,51.6,58.79,33.69,35.4
"2017-11-05 07:30:00",313162,0.394,190.7,-0.16,81.6,42.24666,0,872.7845,0,10.34,3.077,218,6.945,8.48,11.86205,0.283,51.6,58.79,33.69,35.4
"2017-11-05 07:40:00",313163,0.507,192.2,0.211,78.01,79.83509,0,872.9111,0,9.85,3.079,209,6.954,8.46,14.00533,0.179,51.66,58.79,33.7,35.4
"2017-11-05 07:50:00",313164,0.344,179.4,0.477,76.76,113.5876,0,872.99,0,11.55,3.062,218,6.935,8.49,17.73048,0.157,51.66,58.79,33.7,35.4
"2017-11-05 08:00:00",313165,0.238,258,0.596,75.69,58.94782,0,872.9811,0,11.78,3.058,212,6.934,8.5,19.12266,0.329,51.66,58.79,33.7,35.4
"2017-11-05 08:10:00",313166,0.252,186.2,0.927,72.33,77.864,0,873.0628,0,11.76,3.057,269,6.932,8.48,17.9505,0.255,51.6,58.85,33.69,35.41
"2017-11-05 08:20:00",313167,0.514,202.8,0.987,72.76,52.25948,0,873.1024,0,10.91,3.065,250,6.93,8.48,18.35639,0.351,51.66,58.79,33.7,35.4
"2017-11-05 08:30:00",313168,0.553,280.6,1.029,70.47,54.72155,0,873.1579,0,7.455,3.1,300,6.914,8.47,18.74305,0.343,51.6,58.85,33.69,35.41
"2017-11-05 08:40:00",313169,0.733,273.7,0.995,69.88,59.63084,0,873.1559,0,11.73,3.057,309,6.878,8.45,18.90473,0.318,51.6,58.79,33.69,35.4
"2017-11-05 08:50:00",313170,0.617,270,1.237,70.4,84.58733,0,873.1634,0,11.27,3.06,336,6.814,8.42,18.91414,0.239,51.6,58.79,33.69,35.4
"2017-11-05 09:00:00",313171,0.588,272.1,1.667,68.72,58.90879,0,873.2032,0,4.945,3.121,204,6.781,8.41,19.20489,0.326,51.6,58.79,33.69,35.4
"2017-11-05 09:10:00",313172,0.697,279.8,1.748,66.71,59.95215,0,873.258,0,9.82,3.072,268,6.754,8.39,19.72729,0.329,51.66,58.85,33.7,35.41
"2017-11-05 09:20:00",313173,0.526,312.1,1.738,67.43,61.95674,0,873.4056,0,6.659,3.103,205,6.743,8.39,19.79514,0.32,51.6,58.85,33.69,35.41
"2017-11-05 09:30:00",313174,0.663,316.9,1.827,68.51,62.80582,0,873.4014,0,8.29,3.086,244,6.739,8.37,20.10595,0.32,51.6,58.85,33.69,35.41
"2017-11-05 09:40:00",313175,0.475,327.9,2.108,68.05,63.7024,0,873.4077,0,8.07,3.087,243,6.734,8.35,20.9288,0.329,51.66,58.85,33.7,35.41
"2017-11-05 09:50:00",313176,0.503,314.9,2.137,68.36,65.10249,0,873.433,0,7.419,3.093,261,6.687,8.34,21.85786,0.336,51.66,58.85,33.7,35.41
"2017-11-05 10:00:00",313177,0.349,310.4,2.4,69.18,66.97066,0,873.6058,0,6.171,3.103,240,6.662,8.35,23.19269,0.346,51.6,58.85,33.69,35.41
"2017-11-05 10:10:00",313178,0.543,315.8,2.844,69.17,69.18099,0,873.6606,0,10.6,3.058,259,6.658,8.35,25.67275,0.371,51.66,58.85,33.7,35.41
"2017-11-05 10:20:00",313179,0.652,354.6,3.119,69.88,90.40331,0,873.6606,0,8.69,3.076,281,6.665,8.35,28.18693,0.325,51.66,58.85,33.7,35.41
"2017-11-05 10:30:00",313180,0.535,325.9,3.163,71.62,79.43424,0,873.6606,0,-35.17,3.51,247,6.667,8.35,30.59873,0.391,51.66,58.85,33.7,35.41
"2017-11-05 10:40:00",313181,0.643,299.1,3.324,70.2,190.0294,0,873.6606,0,8.6,3.074,403,6.659,8.35,35.33889,0.225,51.66,58.79,33.7,35.4
"2017-11-05 10:50:00",313182,0.399,308.6,3.976,63.81,232.4583,0,873.641,0,9.55,3.061,301,6.654,8.35,37.51179,0.172,51.66,58.85,33.7,35.41
"2017-11-05 11:00:00",313183,0.541,0.274,4.337,65.35,187.7755,0,873.574,0,-0.802,3.162,201,6.684,8.31,46.48014,0.323,51.66,58.85,33.7,35.41
"2017-11-05 11:10:00",313184,0.9,317.3,4.293,66.79,196.1424,0,873.4655,0,2.738,3.127,222,6.77,8.29,58.131,0.329,51.66,58.85,33.7,35.41
"2017-11-05 11:20:00",313185,0.442,313.8,4.812,66.87,230.9618,0,873.3189,0,2.534,3.127,234,6.742,8.27,62.33073,0.288,51.6,58.85,33.69,35.41
"2017-11-05 11:30:00",313186,0.677,307.7,4.792,68.69,165.2731,0,873.3149,0,8.35,3.069,350,6.681,8.24,62.82777,0.429,51.6,58.85,33.69,35.41
"2017-11-05 11:40:00",313187,0.457,301.9,4.907,69.36,478.1795,0,873.3139,0,5.91,3.093,347,6.662,8.22,78.40865,0.206,51.6,58.85,33.69,35.41
"2017-11-05 11:50:00",313188,0.442,290.9,5.103,70.08,710.6578,0,873.2758,0,3.674,3.113,259,6.711,8.21,86.73156,0.122,51.66,58.79,33.7,35.4
"2017-11-05 12:00:00",313189,0.599,2.837,5.693,66.82,705.5336,0,873.0872,0,10.29,3.044,380,6.771,8.28,92.74924,0.131,51.66,58.85,33.7,35.41
"2017-11-05 12:10:00",313190,0.684,324,5.896,64.85,695.9182,0,872.9766,0,-28.76,3.429,196,6.719,8.24,95.5649,0.137,51.6,58.85,33.69,35.41
"2017-11-05 12:20:00",313191,0.676,312.4,6.398,63.13,685.3797,0,872.9684,0,10.77,3.038,302,6.646,8.26,95.43983,0.139,51.66,58.85,33.7,35.41
"2017-11-05 12:30:00",313192,0.626,334.9,6.31,63.09,672.2146,0,872.967,0,8.99,3.054,326,6.682,8.25,93.55494,0.139,51.6,58.79,33.69,35.4
"2017-11-05 12:40:00",313193,0.505,317.2,6.356,62.99,656.4598,0,872.9317,0,6.023,3.083,260,6.687,8.24,89.81982,0.137,51.66,58.79,33.7,35.4
"2017-11-05 12:50:00",313194,0.587,333.7,6.321,63.18,642.0724,0,872.8899,0,5.058,3.092,230,6.671,8.2,82.08183,0.128,51.6,58.85,33.69,35.41
"2017-11-05 13:00:00",313195,0.398,300.6,6.426,62.16,624.6035,0,872.8774,0,9.15,3.054,254,6.656,8.16,75.55758,0.121,51.6,58.85,33.69,35.41
"2017-11-05 13:10:00",313196,0.501,338.4,6.887,60.79,601.4083,0,872.8743,0,9.27,3.05,312,6.648,8.1,71.23954,0.118,51.6,58.79,33.69,35.4
"2017-11-05 13:20:00",313197,0.532,350.1,6.644,60.13,581.6999,0,872.8736,0,5.524,3.088,240,6.643,8.07,60.63894,0.104,51.6,58.79,33.69,35.4
"2017-11-05 13:30:00",313198,0.54,290.8,6.684,60.26,558.5124,0,872.8312,0,10.19,3.04,390,6.642,8.07,46.93273,0.084,51.6,58.79,33.69,35.4
"2017-11-05 13:40:00",313199,0.171,306.8,7.127,59.29,471.0258,0,872.6291,0,6.403,3.076,273,6.624,8.07,36.3142,0.077,51.6,58.79,33.69,35.4
"2017-11-05 13:50:00",313200,0.331,293.4,7.075,59.14,167.4242,0,872.6207,0,10.2,3.039,312,6.608,8.07,18.10027,0.162,51.66,58.79,33.7,35.4
"2017-11-05 14:00:00",313201,0.417,351.1,6.927,60.25,53.37486,0,872.6234,0,8.51,3.058,333,6.641,8.04,9.762344,0.183,51.66,58.79,33.7,35.4
"2017-11-05 14:10:00",313202,0.494,318.2,6.645,60.95,53.22187,0,872.793,0,7.913,3.063,284,6.663,8.06,7.433141,0.14,51.6,58.85,33.69,35.41
"2017-11-05 14:20:00",313203,0.236,340.9,6.76,61.28,52.82063,0,872.9525,0,6.956,3.073,304,6.7,8.1,6.642264,0.126,51.6,58.85,33.69,35.41
"2017-11-05 14:30:00",313204,0.235,38.56,6.802,61.29,50.73385,0,872.9677,0,4.779,3.093,237,6.721,8.14,6.188056,0.122,51.66,58.85,33.7,35.41
"2017-11-05 14:40:00",313205,0.221,265.3,6.935,60.65,47.29638,0,873.0272,0,5.91,3.083,293,6.731,8.1,5.631179,0.119,51.6,58.85,33.69,35.41
"2017-11-05 14:50:00",313206,0.252,276.9,6.605,60.07,43.80284,0,873.1501,0,9.52,3.048,275,6.76,8.01,5.009754,0.114,51.66,58.85,33.7,35.41
"2017-11-05 15:00:00",313207,0.18,300.7,6.581,59.82,41.39131,0,873.2197,0,4.801,3.095,227,6.778,8.04,4.774991,0.115,51.6,58.85,33.69,35.41
"2017-11-05 15:10:00",313208,0.146,251.8,6.531,60.54,38.0479,0,873.2197,0,4.852,3.095,230,6.812,8.1,4.207129,0.111,51.6,58.85,33.69,35.41
"2017-11-05 15:20:00",313209,0.172,252.4,6.502,60.75,35.37843,0,873.2429,0,9.47,3.049,395,6.828,8.15,3.862612,0.109,51.6,58.79,33.69,35.4
"2017-11-05 15:30:00",313210,0.265,257.6,6.368,58.37,32.14428,0,873.3661,0,4.455,3.1,227,6.821,8.17,3.351026,0.104,51.55,58.85,33.68,35.41
"2017-11-05 15:40:00",313211,0.057,310.6,6.214,57.97,28.26821,0,873.4678,0,4.223,3.103,212,6.827,8.2,2.827945,0.1,51.6,58.85,33.69,35.41
"2017-11-05 15:50:00",313212,0.057,305.1,5.999,58.54,24.6316,0,873.5496,0,3.964,3.107,218,6.823,8.21,2.312406,0.094,51.6,58.79,33.69,35.4
"2017-11-05 16:00:00",313213,0.107,250.6,5.812,58.17,21.57283,0,873.5517,0,3.908,3.109,212,6.823,8.21,2.126658,0.099,51.6,58.85,33.69,35.41
"2017-11-05 16:10:00",313214,0.101,120.4,5.718,57.51,18.26634,0,873.5654,0,3.807,3.11,209,6.826,8.2,1.94849,0.107,51.55,58.85,33.68,35.41
"2017-11-05 16:20:00",313215,0.09,250.4,5.576,59.55,14.50377,0,873.5662,0,3.804,3.111,208,6.824,8.17,1.554243,0.107,51.6,58.85,33.69,35.41
"2017-11-05 16:30:00",313216,0.02,250.1,5.359,57.84,10.03351,0,873.7223,0,4.152,3.109,204,6.831,8.15,1.103133,0.11,51.6,58.85,33.69,35.41
"2017-11-05 16:40:00",313217,0.064,256.2,5.042,57.92,5.354876,0,873.8192,0,3.944,3.113,211,6.854,8.14,0.6558147,0.124,51.6,58.85,33.69,35.41
"2017-11-05 16:50:00",313218,0.11,209,4.754,58.94,0.9317955,0,873.9266,0,4.292,3.111,212,6.895,8.12,0.2274502,0.201,51.55,58.79,33.68,35.4
"2017-11-05 17:00:00",313219,0.185,198.3,4.228,64.71,0,0,874.0089,0,3.725,3.121,207,6.905,8.12,0,0,51.6,58.79,33.69,35.4
"2017-11-05 17:10:00",313220,0.195,198.1,3.596,70.36,0,0,874.051,0,4.062,3.121,217,6.911,8.12,0,0,51.55,58.85,33.68,35.41
"2017-11-05 17:20:00",313221,0.363,195.5,3.02,73.47,0,0,874.0721,0,3.942,3.125,208,6.928,8.14,0,0,51.6,58.85,33.69,35.41
"2017-11-05 17:30:00",313222,0.327,192.7,2.83,71.14,0,0,874.1193,0,3.674,3.127,212,6.938,8.17,0,0,51.55,58.85,33.68,35.41
"2017-11-05 17:40:00",313223,0.326,191.1,2.38,75.16,0,0,874.3125,0,4.209,3.126,219,6.906,8.23,0,0,51.55,58.85,33.68,35.41
"2017-11-05 17:50:00",313224,0.574,191.9,2.156,73.22,0,0,874.3716,0,4.005,3.128,214,6.909,8.27,0,0,51.55,58.85,33.68,35.41
"2017-11-05 18:00:00",313225,0.407,190.9,2.082,72.85,0,0,874.4654,0,4.104,3.127,214,6.903,8.21,0.0189606,0,51.55,58.85,33.68,35.41
"2017-11-05 18:10:00",313226,0.602,187.7,1.94,72.61,0,0,874.4545,0,3.9,3.131,205,6.912,8.16,0.0189606,0,51.55,58.79,33.68,35.4
"2017-11-05 18:20:00",313227,0.471,186.3,1.856,72.22,0,0,874.4181,0,4.054,3.128,212,6.912,8.13,0,0,51.55,58.79,33.68,35.4
"2017-11-05 18:30:00",313228,0.308,186.3,2.151,69.68,0,0,874.4758,0,3.704,3.13,208,6.912,8.13,0.2692412,0,51.55,58.85,33.68,35.41
"2017-11-05 18:40:00",313229,0.316,186.3,1.976,70.61,0,0,874.4782,0,3.951,3.13,207,6.912,8.13,0.07963474,0,51.55,58.79,33.68,35.4
"2017-11-05 18:50:00",313230,0.158,178.3,2.249,68.05,0,0,874.4845,0,4.261,3.122,217,6.912,8.13,0.5119376,0,51.55,58.85,33.68,35.41
"2017-11-05 19:00:00",313231,0.084,141.6,3.216,62.65,0,0,874.5098,0,3.934,3.126,217,6.913,8.13,1.190729,0,51.55,58.79,33.68,35.4
"2017-11-05 19:10:00",313232,0.369,180.7,2.09,69.51,0,0,874.4571,0,3.751,3.132,233,6.915,8.13,0.01516852,0,51.55,58.79,33.68,35.4
"2017-11-05 19:20:00",313233,0.264,181.4,2.249,68.7,0,0,874.4234,0,5.427,3.107,243,6.905,8.13,0.5384825,0,51.55,58.79,33.68,35.4
"2017-11-05 19:30:00",313234,0.022,210.8,3.892,62.91,0,0,874.4677,0,8.17,3.074,305,6.905,8.13,1.668537,0,51.55,58.85,33.68,35.41
"2017-11-05 19:40:00",313235,0.294,194.2,3.577,64.3,0,0,874.5519,0,9.83,3.068,297,6.867,8.13,0.9366562,0,51.55,58.79,33.68,35.4
"2017-11-05 19:50:00",313236,0.607,191,2.353,71,0,0,874.6531,0,10.28,3.065,344,6.828,8.13,0.01896065,0,51.55,58.79,33.68,35.4
"2017-11-05 20:00:00",313237,0.311,185.5,2.298,72.11,0,0,874.6721,0,10.91,3.059,377,6.825,8.13,0,0,51.55,58.79,33.68,35.4
"2017-11-05 20:10:00",313238,0.284,186.1,2.139,72.58,0,0,874.6721,0,11.04,3.056,384,6.825,8.13,0.087219,0,51.55,58.79,33.68,35.4
"2017-11-05 20:20:00",313239,0.189,180.1,2.386,71.39,0,0,874.7354,0,10.68,3.06,526,6.827,8.13,0.2730334,0,51.55,58.79,33.68,35.4
"2017-11-05 20:30:00",313240,0.037,183.7,2.881,68.07,0,0,874.9208,0,11.11,3.051,372,6.858,8.13,0.7318811,0,51.55,58.79,33.68,35.4
"2017-11-05 20:40:00",313241,0.258,263.4,3.124,67.04,0,0,874.925,0,-28,3.442,206,6.841,8.13,0.6787913,0,51.49,58.79,33.66,35.4
"2017-11-05 20:50:00",313242,0.108,212.7,2.91,67.84,0,0,875.003,0,10.98,3.059,445,6.801,8.13,0.4778084,0,51.55,58.79,33.68,35.4
"2017-11-05 21:00:00",313243,0.234,185.4,1.783,74.38,0,0,875.1422,0,-27.31,3.441,187,6.774,8.13,0,0,51.49,58.79,33.66,35.4
"2017-11-05 21:10:00",313244,0.232,93.6,3.102,70.17,0,0,875.1779,0,-29.74,3.453,213,6.739,8.13,1.133847,0,51.55,58.79,33.68,35.4
"2017-11-05 21:20:00",313245,0.245,120.4,3.483,67.95,0,0,875.1779,0,8.99,3.074,465,6.739,8.13,0.5764038,0,51.55,58.79,33.68,35.4
"2017-11-05 21:30:00",313246,0.259,106.6,3.18,70.06,0,0,875.3698,0,-31.92,3.476,199,6.739,8.13,0.6105329,0,51.49,58.79,33.66,35.4
"2017-11-05 21:40:00",313247,0.471,62.54,4.029,68.76,0,0,875.4308,0,6.748,3.09,249,6.739,8.13,0.989746,0,51.55,58.79,33.68,35.4
"2017-11-05 21:50:00",313248,0.385,4.192,3.963,71.61,0,0,875.4308,0,7.404,3.083,325,6.739,8.13,0.2502806,0,51.55,58.79,33.68,35.4
"2017-11-05 22:00:00",313249,0.364,7.073,4.06,73.19,0,0,875.4476,0,-30.12,3.456,196,6.739,8.13,0.1668537,0,51.55,58.79,33.68,35.4
"2017-11-05 22:10:00",313250,0.366,2.41,3.902,74.74,0,0,875.5868,0,8.56,3.073,278,6.739,8.13,0.0379213,0,51.49,58.79,33.66,35.4
"2017-11-05 22:20:00",313251,0.017,50.35,3.219,76.44,0,0,875.6437,0,9.39,3.071,276,6.736,8.13,0,0,51.49,58.79,33.66,35.4
"2017-11-05 22:30:00",313252,0.04,61.07,2.981,78.54,0,0,875.669,0,9.85,3.064,285,6.713,8.13,0,0,51.55,58.79,33.68,35.4
"2017-11-05 22:40:00",313253,0.009,141.4,3.075,78.62,0,0,875.6774,0,9.39,3.071,282,6.682,8.13,0.05308982,0,51.49,58.79,33.66,35.4
"2017-11-05 22:50:00",313254,0.056,182.8,2.592,81.6,0,0,875.6584,0,8.23,3.082,284,6.653,8.13,0.06446622,0,51.55,58.79,33.68,35.4
"2017-11-05 23:00:00",313255,0.017,182.3,2.91,81.3,0,0,875.6268,0,9.39,3.07,473,6.652,8.13,0.3905894,0,51.55,58.79,33.68,35.4
"2017-11-05 23:10:00",313256,0.039,182.4,2.459,83.3,0,0,875.6796,0,-29.15,3.455,180,6.641,8.14,0.09480325,0,51.55,58.79,33.68,35.4
"2017-11-05 23:20:00",313257,0.212,180.3,1.87,85.5,0,0,875.6837,0,-28.8,3.458,183,6.6,8.16,0.03412917,0,51.55,58.79,33.68,35.4
"2017-11-05 23:30:00",313258,0.348,179.4,1.663,88.1,0,0,875.6837,0,-29.65,3.466,182,6.638,8.18,0.07205047,0,51.55,58.79,33.68,35.4
"2017-11-05 23:40:00",313259,0.156,182.4,1.949,87.7,0,0,875.7069,0,-29.31,3.461,196,6.625,8.17,0.2502806,0,51.49,58.79,33.66,35.4
"2017-11-05 23:50:00",313260,0.142,167.2,1.881,87.1,0,0,875.7343,0,10.75,3.062,498,6.575,8.15,0.3109547,0,51.55,58.79,33.68,35.4
